Regional Weather Roundup
Issued by NWS Northern Indiana

Home | Current Version | Previous Version | Graphics & Text | Print | Product List | Glossary On
Versions: 1 2 3 4 5 6 7 8 9 10 11 12 13 14 15 16 17 18 19 20 21 22 23 24 25 26 27 28 29 30 31 32 33 34 35 36 37 38 39 40 41 42 43 44 45 46 47 48 49 50
190
ASUS43 KIWX 041300
RWRIWX

KIWX WEATHER ROUNDUP
NATIONAL WEATHER SERVICE NORTHERN INDIANA
800 AM EST SUN DEC 04 2016

NOTE: "FAIR" INDICATES FEW OR NO CLOUDS BELOW 12,000 FEET WITH NO
SIGNIFICANT WEATHER AND/OR OBSTRUCTIONS TO VISIBILITY.

* THESE STATIONS ARE NOT UNDER NWS QUALITY CONTROL. THEY ALSO MAY NOT
  REPORT WEATHER SUCH AS PRECIPITATION OR FOG.

INZ001>027-041400-
NORTHERN INDIANA

CITY           SKY/WX    TMP DP  RH WIND       PRES   REMARKS
GARY*          CLOUDY    32  28  86 SE5       30.18F WCI  27
VALPARAISO     CLOUDY    32  28  85 E6        30.18F WCI  26
SOUTH BEND     CLOUDY    31  25  78 SE5       30.19S WCI  26
GOSHEN         CLOUDY    33  26  75 SE6       30.18F WCI  28
ANGOLA*        CLOUDY    32  27  80 SE6       30.18F WCI  26
FORT WAYNE     CLOUDY    31  26  82 E6        30.19F WCI  25
PERU/GRISSOM   CLOUDY    32  31  94 E3        30.16S

$$
INZ028>050-041400-
CENTRAL INDIANA

CITY           SKY/WX    TMP DP  RH WIND       PRES   REMARKS
LAFAYETTE      CLOUDY    33  29  85 E7        30.16F WCI  27
KOKOMO*        CLOUDY    32  30  92 E5        30.18S WCI  27
MUNCIE*        CLOUDY    35  30  82 SE5       30.16F WCI  31
INDIANAPOLIS   CLOUDY    35  30  82 E6        30.15F WCI  30

$$
MIZ043>046-050>051-056>058-064>065-071>073-077>080-041400-
SOUTHWEST LOWER MICHIGAN

CITY           SKY/WX    TMP DP  RH WIND       PRES   REMARKS
BATTLE CREEK   CLOUDY    32  28  85 SE3       30.19F
BENTON HARBOR  CLOUDY    33  25  72 SE6       30.19S WCI  28
COLDWATER*     CLOUDY    32  27  80 SE3       30.19S
HILLSDALE*     CLOUDY    32  27  80 SE3       30.18F
HOLLAND        CLOUDY    33  27  78 SE7       30.19S WCI  27
GRAND RAPIDS   CLOUDY    33  26  75 S3        30.21R
KALAMAZOO      CLOUDY    33  27  78 SE3       30.19F HAZE
STURGIS*       CLOUDY    33  28  81 E3        30.18F
THREE RIVERS*  CLOUDY    33  29  86 CALM      30.19F

$$
OHZ001>008-015>018-024>025-041400-
NORTHWEST OHIO

CITY           SKY/WX    TMP DP  RH WIND       PRES   REMARKS
DEFIANCE       CLOUDY    35  25  66 E5        30.21F WCI  31
FINDLAY        CLOUDY    34  26  72 SE7       30.21S WCI  28
TOLEDO EXPRESS CLOUDY    32  29  88 CALM      30.22S
TOLEDO METCALF CLOUDY    34  30  85 CALM      30.24S
LIMA           CLOUDY    33  28  81 SE7       30.19F WCI  27

$$
AND FOR LAKE MICHIGAN COASTAL AND OPEN LAKE BUOY OBSERVATIONS

STATION/POSITION TEMP    WIND        PRES    VSBY  WAVE
                 AIR SEA DIR/SP/G                  HT/PER
                 (F)     (DEG/KT/KT) (MB)    (MI)  (FT/S)
CALUMET HARBOR    32     180/  4/  5 1021.5F
MICHIGAN CITY     32     110/  7/  9   N/A
BURNS HARBOR      33     150/  8/ 12 1022.4S
SAINT JOSEPH      34     160/  2/  6 1023.0
SOUTH LAKE BUOY   36 48  280/  2/  4 1022.3          0

$$
&&




USA.gov is the U.S. government's official web portal to all federal, state and local government web resources and services.